Location: Oberkirch
(48.5323°N, 8.0787°E)
Time: 21:40:41
(UTC+00:00)

Tiros 1 - Pass Details

Date: 16 February 2026
Orbit: 618 x 649 km, 48.4° (Epoch: 9 March)

Event Time Altitude Azimuth Distance (km) Brightness Sun altitude
Rises 09:20:04 0° 234° (SW) 2,901 10.5 21.6°
Reaches altitude 10° 09:22:26 10° 229° (SW) 1,991 9.8 21.8°
Maximum altitude 09:26:50 48° 155° (SSE) 813 9.0 22.3°
Drops below altitude 10° 09:31:13 10° 81° (E) 1,985 10.1 22.7°
Sets 09:33:35 0° 76° (ENE) 2,891 10.8 22.9°
